Location: Lake Almanor
(40.2485°N, 121.1442°W)
Time: 07:26:29
(UTC-08:00)

STARLINK-1115 - Pass Details

Date: 01 February 2020
Orbit: 348 x 350 km, 53.0° (Epoch: 18 February)

Event Time Altitude Azimuth Distance (km) Brightness Sun altitude
Rises 18:35:56 0° 307° (NW) 2,165 7.3 -14.2°
Reaches altitude 10° 18:37:57 10° 304° (NW) 1,319 6.2 -14.6°
Maximum altitude 18:40:52 66° 222° (SW) 388 3.0 -15.1°
Enters shadow 18:42:40 21° 143° (SE) 867 4.4 -15.5°
